This demonstration page uses our WeatherBlox Daily Observations layout. Learn more.

39.51506, -84.39828

Hourly Observations for November 22, 2018

Temp ( °F °C ) Dew Point ( °F °C ) Humidity (%) Winds ( mph kmh ) Pressure ( in mb ) Visibility ( mi km ) Precip ( " mm )
12:15 am 00:15 Clear 32 0.2 29 -1.8 87 87 Calm 30.42 1030 7 11.26538 0 0
12:35 am 00:35 Clear with Mist and Fog 31 -0.7 29 -1.6 94 94 Calm 30.42 1030 5 8.0467 0 0
12:55 am 00:55 Clear with Mist and Fog 31 -0.8 29 -1.5 95 95 Calm 30.42 1030 5 8.0467 0 0
1:15 am 01:15 Clear with Mist and Fog 29 -1.9 28 -2.5 96 96 Calm 30.42 1030 4 6.43736 0 0
1:35 am 01:35 Clear with Mist and Fog 29 -1.6 28 -2.1 96 96 Calm 30.42 1030 4 6.43736 0 0
1:55 am 01:55 Clear with Mist and Fog 29 -1.6 28 -2.3 95 95 N 3 6 30.42 1030 5 8.0467 0 0
2:15 am 02:15 Clear with Mist and Fog 28 -2.4 27 -3 96 96 N 3 6 30.42 1030 4 6.43736 0 0
2:35 am 02:35 Clear with Mist and Fog 27 -2.7 26 -3.3 96 96 N 3 6 30.42 1030 4 6.43736 0 0
2:55 am 02:55 Clear with Mist and Fog 28 -2.1 27 -2.7 96 96 N 3 6 30.42 1030 4 6.43736 0 0
3:15 am 03:15 Mostly Cloudy with Mist and Fog 28 -2.5 26 -3.1 96 96 Calm 30.42 1030 4 6.43736 0 0
3:35 am 03:35 Cloudy with Mist and Fog 29 -1.6 28 -2.4 94 94 Calm 30.42 1030 5 8.0467 0 0
3:55 am 03:55 Cloudy with Mist and Fog 29 -1.7 28 -2.3 96 96 Calm 30.42 1030 4 6.43736 0 0
4:15 am 04:15 Cloudy with Mist and Fog 29 -1.8 28 -2.3 96 96 Calm 30.45 1031 4 6.43736 0 0
4:35 am 04:35 Partly Cloudy with Mist and Fog 29 -1.7 28 -2.4 95 95 Calm 30.45 1031 4 6.43736 0 0
4:55 am 04:55 Clear with Mist and Fog 29 -1.5 28 -2.4 94 94 NNE 3 6 30.45 1031 5 8.0467 0 0
5:15 am 05:15 Clear with Mist and Fog 29 -1.8 27 -2.9 92 92 Calm 30.45 1031 5 8.0467 0 0
5:35 am 05:35 Clear with Mist and Fog 29 -1.7 27 -2.9 92 92 Calm 30.45 1031 5 8.0467 0 0
5:55 am 05:55 Clear with Mist and Fog 28 -2.1 26 -3.1 93 93 Calm 30.45 1031 5 8.0467 0 0
6:15 am 06:15 Clear with Mist and Fog 26 -3.3 25 -4.1 94 94 Calm 30.45 1031 4 6.43736 0 0
6:35 am 06:35 Clear with Mist and Fog 27 -2.7 26 -3.3 96 96 Calm 30.45 1031 3.5 5.63269 0 0
6:55 am 06:55 Clear with Mist and Fog 28 -2.1 27 -2.7 96 96 Calm 30.48 1032 4 6.43736 0 0
7:15 am 07:15 Clear with Mist and Fog 28 -2.3 27 -3 95 95 Calm 30.48 1032 3.5 5.63269 0 0
7:35 am 07:35 Sunny with Mist and Fog 27 -3 25 -3.8 94 94 N 6 9 30.48 1032 3.5 5.63269 0 0
7:55 am 07:55 Sunny with Mist and Fog 27 -2.6 26 -3.5 94 94 N 5 7 30.48 1032 4 6.43736 0 0
8:15 am 08:15 Sunny with Mist and Fog 29 -1.9 27 -3 92 92 NNE 5 7 30.48 1032 5 8.0467 0 0
8:35 am 08:35 Sunny 31 -0.8 28 -2.4 89 89 NE 6 9 30.5 1033 7 11.26538 0 0
8:55 am 08:55 Sunny 31 -0.3 28 -2.3 87 87 NE 6 9 30.5 1033 10 16.0934 0 0
9:15 am 09:15 Sunny 32 0 28 -2.2 85 85 NE 7 11 30.5 1033 10 16.0934 0 0
9:35 am 09:35 Sunny 34 0.9 29 -1.8 82 82 ENE 9 15 30.5 1033 10 16.0934 0 0
9:55 am 09:55 Sunny 35 1.4 29 -1.6 81 81 NE 9 15 30.5 1033 10 16.0934 0 0
10:15 am 10:15 Sunny 35 1.9 29 -1.7 77 77 ENE 8 13 30.5 1033 10 16.0934 0 0
10:35 am 10:35 Mostly Cloudy 36 2.4 29 -1.6 75 75 ENE 8 13 30.5 1033 10 16.0934 0 0
10:55 am 10:55 Partly Cloudy 37 3 29 -1.6 72 72 E 9 15 30.5 1033 10 16.0934 0 0
11:15 am 11:15 Partly Cloudy 38 3.5 29 -1.4 71 71 ESE 10 17 30.5 1033 10 16.0934 0 0
11:35 am 11:35 Mostly Cloudy 39 3.8 30 -1.3 70 70 ESE 7 11 30.48 1032 10 16.0934 0 0
11:55 am 11:55 Mostly Cloudy 39 3.7 29 -1.4 70 70 E 9 15 30.48 1032 10 16.0934 0 0
12:15 pm 12:15 Partly Cloudy 39 4.1 30 -1.1 69 69 E 10 17 30.48 1032 10 16.0934 0 0
12:35 pm 12:35 Partly Cloudy 39 4 30 -1.2 69 69 E 7 11 30.45 1031 10 16.0934 0 0
12:55 pm 12:55 Sunny 40 4.6 30 -1.2 66 66 ESE 5 7 30.45 1031 10 16.0934 0 0
1:15 pm 13:15 Sunny 40 4.7 30 -1.2 66 66 SE 5 7 30.45 1031 10 16.0934 0 0
1:35 pm 13:35 Sunny 42 5.3 30 -0.9 65 65 E 8 13 30.45 1031 10 16.0934 0 0
1:55 pm 13:55 Sunny 41 5.1 30 -1.1 65 65 ENE 7 11 30.42 1030 10 16.0934 0 0
2:15 pm 14:15 Partly Cloudy 40 4.7 30 -1.2 66 66 E 3 6 30.42 1030 10 16.0934 0 0
2:35 pm 14:35 Partly Cloudy 42 5.7 30 -1.1 62 62 E 7 11 30.42 1030 10 16.0934 0 0
2:55 pm 14:55 Sunny 42 5.7 30 -0.9 63 63 ESE 7 11 30.42 1030 10 16.0934 0 0
3:15 pm 15:15 Sunny 42 5.7 30 -1.1 62 62 E 8 13 30.42 1030 10 16.0934 0 0
3:35 pm 15:35 Sunny 42 5.8 30 -0.9 62 62 E 6 9 30.39 1029 10 16.0934 0 0
3:55 pm 15:55 Sunny 42 5.6 30 -1.1 62 62 E 7 11 30.39 1029 10 16.0934 0 0
4:15 pm 16:15 Sunny 42 5.3 30 -1.1 64 64 ENE 7 11 30.39 1029 10 16.0934 0 0
4:35 pm 16:35 Sunny 41 5.1 30 -1.1 65 65 ENE 7 11 30.39 1029 10 16.0934 0 0
4:55 pm 16:55 Sunny 40 4.5 30 -1.1 67 67 E 7 11 30.39 1029 10 16.0934 0 0
5:15 pm 17:15 Sunny 38 3.5 30 -1.2 72 72 E 9 15 30.39 1029 10 16.0934 0 0
5:35 pm 17:35 Clear 38 3.3 30 -1.3 72 72 E 7 11 30.39 1029 10 16.0934 0 0
5:55 pm 17:55 Clear 36 2.3 29 -1.5 76 76 ENE 8 13 30.39 1029 10 16.0934 0 0
6:15 pm 18:15 Clear 37 2.6 29 -1.6 74 74 ENE 8 13 30.39 1029 10 16.0934 0 0
6:35 pm 18:35 Clear 36 2 29 -1.7 77 77 ENE 8 13 30.39 1029 10 16.0934 0 0
6:55 pm 18:55 Clear 35 1.7 29 -1.9 77 77 ENE 8 13 30.39 1029 10 16.0934 0 0
7:15 pm 19:15 Clear 34 1.2 28 -2 79 79 ENE 8 13 30.39 1029 10 16.0934 0 0
7:35 pm 19:35 Clear 34 1.3 28 -2.3 77 77 ENE 6 9 30.39 1029 10 16.0934 0 0
7:55 pm 19:55 Clear 34 0.9 27 -2.6 78 78 NE 6 9 30.39 1029 10 16.0934 0 0
8:15 pm 20:15 Clear 33 0.8 27 -2.8 77 77 ENE 7 11 30.39 1029 10 16.0934 0 0
8:35 pm 20:35 Clear 33 0.6 27 -2.9 78 78 ENE 5 7 30.39 1029 10 16.0934 0 0
8:55 pm 20:55 Clear 33 0.3 26 -3.2 78 78 ENE 6 9 30.39 1029 10 16.0934 0 0
9:15 pm 21:15 Clear 33 0.5 26 -3.4 75 75 E 5 7 30.39 1029 10 16.0934 0 0
9:35 pm 21:35 Clear 32 0.2 26 -3.4 77 77 ENE 3 6 30.39 1029 10 16.0934 0 0
9:55 pm 21:55 Clear 32 0 26 -3.5 78 78 ENE 5 7 30.39 1029 10 16.0934 0 0
10:15 pm 22:15 Clear 32 -0.1 26 -3.5 78 78 ENE 3 6 30.39 1029 10 16.0934 0 0
10:35 pm 22:35 Clear 32 0 26 -3.6 77 77 ENE 3 6 30.39 1029 10 16.0934 0 0
10:55 pm 22:55 Clear 31 -0.3 25 -3.7 78 78 ENE 5 7 30.39 1029 10 16.0934 0 0
11:15 pm 23:15 Clear 31 -0.5 25 -3.7 79 79 ENE 3 6 30.39 1029 10 16.0934 0 0
11:35 pm 23:35 Clear 32 -0.2 25 -3.8 77 77 ENE 3 6 30.39 1029 10 16.0934 0 0
11:55 pm 23:55 Clear 31 -0.4 26 -3.4 80 80 NE 3 6 30.39 1029 10 16.0934 0 0

Powered by AerisWeather